カタログに戻る

STARLINK-31201

運用中通信VLEO
NORAD 58870·PAYLOAD·🇺🇸 United States

打ち上げ Jan 29, 2024 から Cape Canaveral Space Force Station

Loading…

次のパス (今後24時間)

TLE

最新Source: CelesTrak SupGP

元期: Sep 14, 2026, 22:18 UTC

1 58870C 24019T   26257.92965278  .00027895  00000+0  10106-2 0  2571
2 58870  42.9992 259.7943 0001434 264.9424 284.1172 15.27555988    18

AllMySatでSTARLINK-31201をリアルタイム追跡

Download on the App Store